7 * 24
多渠道服务支持
JILIN-01 GAOFEN 2B(吉林一号高分2B)是中国于2019年12月7日成功发射的亚米级高分辨率光学遥感卫星,属于吉林一号星座的核心高分系列。卫星运行于太阳同步轨道,具备0.72米全色分辨率成像能力,侧重高精度测绘与地物精细识别,可广泛服务于国土监测、农业估产、城市规划、防灾减灾等领域,为各行业提供高质量遥感影像支撑。
中国
(CN)
| 数据来源 | 国际轨道数据 |
| 星历时间: | 2026-09-11T06:14:53+0800 13小时前 查看轨道信息 |
| 半长轴: | 6879.301km |
| 偏心率: | 0.0014295 |
| 轨道倾角: | 97.482° |
| 近地点辐角 | 26.304° |
| 升交点赤经 | 325.397° |
| 平近点角 | 333.892° |
| 近地点: | 491.33km |
| 远地点: | 510.998km |
| 周期: | 94.640分钟 |
| 每日圈数: | 15.215504 |